Regional Weather Roundup
Issued by NWS

Home | Current Version | Previous Version | Text Only | Print | Product List | Glossary Off
Versions: 1 2 3 4 5 6 7 8 9 10 11 12 13 14 15 16 17 18 19 20 21 22 23 24 25 26 27 28

000
ASUS45 KSLC 260210
RWRUT

UTAH REGIONAL WEATHER ROUNDUP
NATIONAL WEATHER SERVICE SALT LAKE CITY UT
800 PM MDT THU AUG 25 2016

UTZ001>011-023>025-260300-

NORTHERN UTAH

CITY           SKY/WX    TMP DP  RH WIND       PRES   REMARKS
BRIGHAM CITY     N/A     76  28  16 E3        30.00S
HILL AFB       CLEAR     76  25  15 CALM      30.02S
LOGAN          CLEAR     75  31  19 S6        30.00S
OGDEN          CLEAR     75  26  16 CALM      30.00S
PROVO AIRPORT  PTCLDY    75  46  35 S6        30.01R
SALT LAKE CITY PTCLDY    80  28  15 N7        29.98S
VERNAL         CLOUDY    66  41  40 SW3       30.13S
WENDOVER       CLEAR     79  27  14 CALM      29.99S
HEBER CITY     MOCLDY    70  25  18 CALM      30.06S
WEST JORDAN    MOCLDY    76  31  18 NW5       30.02R

$$

UTZ012>022-026-027-260300-

SOUTHERN/CENTRAL UTAH

CITY           SKY/WX    TMP DP  RH WIND       PRES   REMARKS
BLANDING       CLOUDY    56  52  86 NW9       30.32R
BRYCE CANYON   MOCLDY    52  47  83 W3        30.28F
CEDAR CITY     CLOUDY    64  43  46 N3        30.20R
MILFORD        CLOUDY    67  45  45 S16       30.09R
MOAB/CYNLANDS  MOCLDY    68  44  42 E12       30.11R
PRICE          MOCLDY    65  37  35 SE9       30.16R
ST GEORGE      MOCLDY    84  45  24 NE17      29.95R THUNDER

$$

REGIONAL REPORTS     COLORADO/ARIZONA

CITY           SKY/WX    TMP DP  RH WIND       PRES   REMARKS
CRAIG, CO      LGT RAIN  61  39  44 VRB5      30.22R
GRAND JUNCTION CLOUDY    60  49  66 VRB5      30.17F
RIFLE          LGT RAIN  53  52  96 E8        30.31R
MONTROSE       CLOUDY    56  47  71 NW5       30.29R
CORTEZ         LGT RAIN  56  50  80 NW12      30.33R
PAGE, AZ       LGT RAIN  63  57  81 SE12      30.15R
GRAND CANYON     N/A    N/A N/A N/A MISG      30.26R
KINGMAN        PTCLDY    86  47  25 S14       29.95S
FLAGSTAFF      CLOUDY    54  49  83 SE5       30.28F

$$

REGIONAL REPORTS    NEVADA/IDAHO/WYOMING

CITY           SKY/WX    TMP DP  RH WIND       PRES   REMARKS
LAS VEGAS, NV  PTCLDY    97  29   9 W10       29.77S HX  91
ELY            PTCLDY    73  30  20 S13       30.09R
ELKO           CLEAR     78  13   8 NW8       30.03S
POCATELLO, ID  CLEAR     71  27  19 CALM      30.03S
BURLEY         PTCLDY    69  36  29 W6        30.00R
EVANSTON, WY   CLOUDY    65  18  16 NW7       30.18R
ROCK SPRINGS   CLOUDY    60  33  36 S14       30.18R

$$




USA.gov is the U.S. government's official web portal to all federal, state and local government web resources and services.